Flag for U.S.A. Weather past 2 weeks in Glendale, California, U.S.A.

Now
73 °F

Sunny.


Feels Like: 76 °F
Forecast: 50 / 74 °F
Wind: 3 mph from South

Location: Burbank-Glendale-Pasadena Airport

Current Time: Feb 1, 2015 at 1:30:31 PM

Latest Report: Feb 1, 2015 at 12:53 PM


Visibility: 10 mi

Pressure: 30.04 "Hg

Humidity: 28%

Dew point: 38 °F

Location of GlendaleLocation

Historic Weather in Glendale — Graph

°F

Glendale temperature yesterday

Maximum temperature yesterday: 71 °F (at 12:53 PM)
Minimum temperature yesterday: 53 °F (at 3:53 AM)
Average temperature yesterday: 60 °F

Past Weeks' High & Low Weather Summary

 TemperatureHumidityPressure
High81 °F (Jan 24, 2:53 PM)100% (Jan 20, 8:53 AM)30.24 "Hg (Jan 20, 8:53 AM)
Low44 °F (Jan 23, 6:53 AM)10% (Jan 22, 11:53 AM)29.80 "Hg (Jan 30, 1:53 PM)
Average61 °F50%30.04 "Hg
* Reported Jan 17 11:53 AM — Feb 1 11:53 AM, Glendale, Weather by CustomWeather, © 2014

Note: Actual official high and low records may vary slightly from our data, if they occured in-between our weather recording intervals... More about our weather records

Advertising

Glendale weather history for previous 24 hours

 ConditionsComfort  
Time TempWeatherWind HumidityBarometerVisibility
11:53 AM
Feb 1
70 °FSunny.No wind32%30.08 "Hg10 mi
10:53 AM67 °FSunny.No wind36%30.09 "Hg10 mi
9:53 AM64 °FSunny.3 mph38%30.10 "Hg10 mi
8:53 AM59 °FSunny.No wind48%30.07 "Hg10 mi
7:53 AM52 °FSunny.5 mph66%30.06 "Hg10 mi
6:53 AM48 °FSunny.No wind74%30.04 "Hg10 mi
5:53 AM49 °FClear.No wind69%30.02 "Hg10 mi
4:53 AM48 °FClear.3 mph77%30.00 "Hg10 mi
3:53 AM49 °FClear.5 mph74%29.99 "Hg10 mi
2:53 AM51 °FClear.3 mph71%29.98 "Hg10 mi
1:53 AM52 °FClear.No wind72%29.97 "Hg10 mi
12:53 AM52 °FClear.No wind75%29.97 "Hg10 mi
11:53 PM
Jan 31
54 °FClear.No wind69%29.98 "Hg10 mi
10:53 PM54 °FClear.5 mph72%29.97 "Hg10 mi
9:53 PM57 °FClear.No wind67%29.96 "Hg10 mi
8:53 PM58 °FClear.No wind81%29.95 "Hg10 mi
7:53 PM60 °FClear.3 mph72%29.92 "Hg10 mi
6:53 PM63 °FClear.7 mph63%29.90 "Hg10 mi
5:53 PM65 °FClear.3 mph59%29.88 "Hg10 mi
4:53 PM68 °FSunny.7 mph49%29.85 "Hg10 mi
3:53 PM71 °FPassing clouds.12 mph30%29.85 "Hg10 mi
2:53 PM70 °FScattered clouds.13 mph44%29.84 "Hg10 mi
1:53 PM71 °FScattered clouds.12 mph31%29.84 "Hg10 mi
Weather by CustomWeather, © 2014

See weather overviewHow to use our weather pages